Miscellaneous Local Product
Issued by NWS Hastings, NE

Home | Current Version | Previous Version | Text Only | Print | Product List | Glossary Off
Versions: 1 2 3 4 5 6 7 8 9 10 11 12 13 14 15 16 17 18 19 20 21 22 23 24 25 26 27 28 29 30 31 32 33 34 35 36 37 38 39 40 41 42 43 44 45 46 47 48 49 50

000
AXUS43 KGID 231502
MISGRI

GID CWA HOURLY WEATHER ROUNDUP
NATIONAL WEATHER SERVICE HASTINGS NE
1000 AM CDT SUN APR 23 2017

NOTE: "FAIR" INDICATES FEW OR NO CLOUDS BELOW 12,000 FEET WITH NO
SIGNIFICANT WEATHER AND/OR OBSTRUCTIONS TO VISIBILITY.

...SOUTH CENTRAL NEBRASKA...

CITY           SKY/WX    TMP DP  RH WIND       PRES   REMARKS
GRAND ISLAND   SUNNY     59  32  36 S12       30.14F
HASTINGS       SUNNY     59  31  34 S10       30.15F
KEARNEY        SUNNY     57  30  35 S16G22    30.14S
ORD            SUNNY     58  32  37 SW15      30.10S
YORK           SUNNY     59  32  36 S14       30.15F
AURORA         SUNNY     61  29  30 SW16      30.15S
LEXINGTON      SUNNY     56  30  36 SW14G20   30.13S
HOLDREGE       SUNNY     57  29  34 SW16      30.14S
HEBRON         SUNNY     60  31  34 SW9       30.17S

...NEBRASKA PANHANDLE...

CITY           SKY/WX    TMP DP  RH WIND       PRES   REMARKS
CHADRON        CLOUDY    56  35  45 SW17      29.86F
ALLIANCE       LGT RAIN  52  35  52 S22G32    29.92F
SCOTTSBLUFF    MOSUNNY   54  35  48 SE15      29.92F
SIDNEY         CLOUDY    49  35  58 S22       29.98F

...WESTERN AND NORTH CENTRAL NEBRASKA...

CITY           SKY/WX    TMP DP  RH WIND       PRES   REMARKS
VALENTINE      SUNNY     59  31  34 SW32G40   29.94F
AINSWORTH      SUNNY     56  34  43 S24G33    29.99F
ONEILL         SUNNY     60  29  31 S20G26    30.05F
BROKEN BOW     SUNNY     57  30  35 S20G26    30.09F
IMPERIAL       SUNNY     51  36  56 S17G24    30.07F
NORTH PLATTE   SUNNY     56  33  42 S18G25    30.07F
MCCOOK         SUNNY     57  34  41 S14G22    30.12F

...EASTERN NEBRASKA...

CITY           SKY/WX    TMP DP  RH WIND       PRES   REMARKS
NORFOLK        SUNNY     60  31  33 SW18      30.10F
SO SIOUX CITY  SUNNY     61  37  41 S15       30.11F
TEKAMAH        SUNNY     60  42  51 S7        30.13F
COLUMBUS       SUNNY     61  37  41 SW12      30.15S
ALBION         SUNNY     59  35  40 SW12      30.12F
OMAHA EPPLEY   MOSUNNY   58  41  53 S7        30.15F
OFFUTT AFB     SUNNY     57  41  55 S3        30.15F
MILLARD        SUNNY     62  39  42 S3        30.15F
LINCOLN        SUNNY     59  38  45 S9        30.17F
NEBRASKA CITY  SUNNY     60  27  28 W8        30.16F
BEATRICE       SUNNY     58  40  49 SW6       30.17F
FALLS CITY     SUNNY     58  38  47 W5        30.17F

...NORTHERN KANSAS...

CITY           SKY/WX    TMP DP  RH WIND       PRES   REMARKS
GOODLAND       CLOUDY    51  36  56 S22G30    30.09F
HILL CITY      SUNNY     58  34  40 SW12      30.16F
NORTON         SUNNY     55  28  35 S15       30.14S
PHILLIPSBURG   SUNNY     55  37  50 SE5       30.16F
SMITH CENTER   MOSUNNY   54  36  50 SW8       30.18S
HAYS           SUNNY     57  36  45 SW13      30.18F
RUSSELL        SUNNY     54  37  52 SW6       30.17F
CONCORDIA      SUNNY     58  36  43 SW10      30.18F
SALINA         SUNNY     57  40  52 S5        30.20F
TOPEKA         SUNNY     56  40  55 CALM      30.19S



USA.gov is the U.S. government's official web portal to all federal, state and local government web resources and services.